Flag for Canada Weather past 2 weeks in Burlington, Ontario, Canada

Now
36 °F

Chilly.


Feels Like: 26 °F
Forecast: N/A
Wind: 17 mph from Southeast

Location: Burlington Piers


UV Index: N/A

Visibility: N/A


Pressure: 30.49 "Hg

Humidity: 53%

Dew point: 20 °F

Location of BurlingtonLocation

Historic Weather in Burlington

°F

Burlington temperature yesterday

Maximum temperature yesterday: 39 °F (at 1:00 AM)
Minimum temperature yesterday: 26 °F (at 11:00 PM)
Average temperature yesterday: 32 °F

Past Weeks' High & Low Weather Summary

 TemperatureHumidityPressure
High72 °F (Apr 13, 6:00 PM)100% (Apr 4, 8:00 PM)30.51 "Hg (Apr 4, 8:00 PM)
Low25 °F (Apr 16, 5:00 AM)28% (Apr 9, 4:00 PM)29.32 "Hg (Apr 8, 5:00 AM)
Average41 °F69%29.91 "Hg
* Reported Apr 1 2:00 PM — Apr 16 2:00 PM, Burlington, Weather by CustomWeather, © 2014

Note: Actual official high and low records may vary slightly from our data, if they occured in-between our weather recording intervals... More about our weather records

Advertising

Historic Weather Conditions — Data for Previous 24 hours

 ConditionsComfort  
Time TempWeatherWind HumidityBarometerVisibility
2:00 PM
Apr 16
35 °FChilly.7 mph41%30.51 "HgN/A
1:00 PM35 °FChilly.7 mph49%30.51 "HgN/A
12:00 PM33 °FChilly.8 mph46%30.51 "HgN/A
11:00 AM33 °FChilly.7 mph45%30.50 "HgN/A
10:00 AM29 °FChilly.5 mph62%30.48 "HgN/A
9:00 AM27 °FChilly.3 mph62%30.46 "HgN/A
8:00 AM26 °FChilly.5 mph70%30.43 "HgN/A
7:00 AM26 °FChilly.3 mph69%30.40 "HgN/A
6:00 AM26 °FChilly.3 mph65%30.36 "HgN/A
5:00 AM25 °FChilly.6 mph64%30.31 "HgN/A
4:00 AM26 °FChilly.6 mph63%30.28 "HgN/A
3:00 AM26 °FChilly.6 mph61%30.26 "HgN/A
2:00 AM26 °FChilly.7 mph59%30.24 "HgN/A
1:00 AM26 °FChilly.7 mph57%30.24 "HgN/A
12:00 AM26 °FChilly.6 mph58%30.22 "HgN/A
11:00 PM
Apr 15
26 °FChilly.8 mph55%30.20 "HgN/A
10:00 PM27 °FChilly.12 mph54%30.17 "HgN/A
9:00 PM27 °FChilly.12 mph58%30.13 "HgN/A
7:00 PM30 °FChilly.13 mph72%30.05 "HgN/A
6:00 PM29 °FChilly.15 mph72%29.98 "HgN/A
Weather by CustomWeather, © 2014

See weather overview